Weather History for Bad Axe, MI

Change the Weather History Date:

Tuesday, May 28, 2013

  Actual Average (KP58) Record (KP58)
Temperature  
Mean Temperature 58 °F -  
Max Temperature 68 °F 58 °F 90 °F (2012)
Min Temperature 49 °F 45 °F 39 °F (1997)
Degree Days  
Heating Degree Days 6    
Growing Degree Days 8 (Base 50)    
Moisture  
Dew Point 57 °F    
Average Humidity 97    
Maximum Humidity 100    
Minimum Humidity 63    
Precipitation  
Precipitation 0.00 in - - ()
Sea Level Pressure  
Sea Level Pressure 29.92 in    
Wind  
Wind Speed 7 mph (SSE)    
Max Wind Speed 14 mph    
Max Gust Speed 20 mph    
Visibility 5 miles    
Events Rain    
Averages and records for this station are not official NWS values.
T = Trace of Precipitation, MM = Missing Value Source: NWS Daily Summary

Daily Weather History Graph

Daily Weather History Graph

Search for Another Location

Airport:

Trip Planner

Search our weather history database for the weather conditions in past years. The results will help you decide how hot, cold, wet, or windy it might be!

Date:

Astronomy

May. 28, 2013 Rise Set
Actual Time 5:55 AM EDT 9:03 PM EDT
Civil Twilight 5:20 AM EDT 9:38 PM EDT
Nautical Twilight 4:35 AM EDT 10:23 PM EDT
Astronomical Twilight 3:41 AM EDT 11:18 PM EDT
Moon No Moon Rise 9:45 AM EDT (5/28)
Length of Visible Light 16h 18m
Length of Day
15h 08m
Waning Gibbous, 83% of the Moon is Illuminated
May 28
Waning Gibbous
May 31
Last Quarter
Jun 8
New
Jun 16
First Quarter
Jun 23
Full

Hourly Weather History & Observations

Time (EDT) Temp. Dew Point Humidity Pressure Visibility Wind Dir Wind Speed Gust Speed Precip Events Conditions
12:14 AM 55.6 °F 43.0 °F 63% 30.06 in 10.0 mi SE 5.8 mph - N/A   Overcast
12:35 AM 55.6 °F 43.2 °F 63% 30.06 in 10.0 mi SSE 5.8 mph - N/A   Overcast
12:55 AM 55.6 °F 43.7 °F 64% 30.05 in 10.0 mi SSE 6.9 mph - N/A   Overcast
1:14 AM 55.0 °F 44.1 °F 67% 30.05 in 10.0 mi SE 9.2 mph - N/A   Overcast
1:35 AM 54.1 °F 45.5 °F 73% 30.04 in 10.0 mi SSE 12.7 mph 19.6 mph N/A   Drizzle
1:55 AM 50.2 °F 47.7 °F 91% 30.04 in 10.0 mi SE 6.9 mph - N/A Rain Light Rain
2:14 AM 50.0 °F 48.2 °F 94% 30.03 in 10.0 mi SE 8.1 mph - N/A Rain Light Rain
2:35 AM 49.6 °F 48.4 °F 95% 30.02 in 7.0 mi SE 5.8 mph - N/A Rain Light Rain
2:54 AM 49.3 °F 48.6 °F 97% 30.01 in 4.0 mi SE 6.9 mph - N/A   Overcast
3:15 AM 49.5 °F 49.1 °F 99% 30.01 in 3.0 mi SE 6.9 mph - N/A Rain Light Rain
3:35 AM 49.6 °F 49.6 °F 100% 30.01 in 3.0 mi SE 3.5 mph - N/A Rain Rain
3:54 AM 49.6 °F 49.6 °F 100% 30.00 in 3.0 mi SE 4.6 mph - N/A Rain Rain
4:15 AM 50.0 °F 50.0 °F 100% 29.97 in 4.0 mi SE 5.8 mph - N/A Rain Rain
4:35 AM 50.0 °F 50.0 °F 100% 29.98 in 5.0 mi SE 6.9 mph - N/A   Light Drizzle
4:54 AM 50.0 °F 50.0 °F 100% 29.97 in 7.0 mi SE 4.6 mph - N/A Rain Light Rain
5:15 AM 50.0 °F 50.0 °F 100% 29.97 in 10.0 mi SE 4.6 mph - N/A   Overcast
5:35 AM 50.2 °F 50.2 °F 100% 29.98 in 7.0 mi SE 5.8 mph - N/A   Overcast
5:54 AM 50.2 °F 50.2 °F 100% 29.97 in 7.0 mi SE 4.6 mph - N/A   Overcast
6:15 AM 50.2 °F 50.2 °F 100% 29.97 in 7.0 mi ESE 4.6 mph - N/A   Overcast
6:35 AM 50.0 °F 50.0 °F 100% 29.97 in 5.0 mi ESE 5.8 mph - N/A   Overcast
6:55 AM 50.4 °F 50.4 °F 100% 29.97 in 4.0 mi ESE 4.6 mph - N/A   Overcast
7:15 AM 50.5 °F 50.5 °F 100% 29.97 in 3.0 mi ESE 5.8 mph - N/A   Overcast
7:35 AM 50.9 °F 50.9 °F 100% 29.98 in 3.0 mi SE 5.8 mph - N/A   Overcast
7:55 AM 51.1 °F 51.1 °F 100% 29.97 in 2.5 mi ESE 4.6 mph - N/A   Overcast
8:15 AM 51.3 °F 51.3 °F 100% 29.97 in 2.0 mi SSE 5.8 mph - N/A   Overcast
8:35 AM 51.8 °F 51.8 °F 100% 29.97 in 2.0 mi ESE 5.8 mph - N/A   Overcast
8:55 AM 52.3 °F 52.3 °F 100% 29.96 in 2.5 mi SE 5.8 mph - N/A   Overcast
9:15 AM 52.7 °F 52.7 °F 100% 29.97 in 2.5 mi SSE 3.5 mph - N/A   Overcast
9:35 AM 53.1 °F 53.1 °F 100% 29.96 in 2.5 mi SSE 4.6 mph - N/A   Overcast
9:55 AM 53.4 °F 53.4 °F 100% 29.95 in 3.0 mi ESE 4.6 mph - N/A   Overcast
10:15 AM 53.6 °F 53.6 °F 100% 29.95 in 3.0 mi ESE 5.8 mph - N/A   Overcast
10:35 AM 54.9 °F 54.9 °F 100% 29.93 in 2.5 mi ESE 5.8 mph - N/A   Overcast
10:55 AM 55.4 °F 55.4 °F 100% 29.92 in 3.0 mi ESE 5.8 mph - N/A   Overcast
11:15 AM 55.4 °F 55.4 °F 100% 29.93 in 2.5 mi SE 4.6 mph - N/A   Overcast
11:35 AM 55.8 °F 55.8 °F 100% 29.93 in 3.0 mi SE 8.1 mph - N/A   Overcast
11:55 AM 56.3 °F 56.3 °F 100% 29.93 in 3.0 mi SSE 8.1 mph - N/A   Overcast
12:15 PM 56.5 °F 56.5 °F 100% 29.93 in 3.0 mi SSE 5.8 mph - N/A Rain Light Rain
12:35 PM 56.5 °F 56.5 °F 100% 29.94 in 2.5 mi South 5.8 mph - N/A Rain Rain
12:55 PM 56.5 °F 56.5 °F 100% 29.94 in 1.5 mi South 5.8 mph - N/A Rain Heavy Rain
1:15 PM 56.3 °F 56.3 °F 100% 29.89 in 1.5 mi East 8.1 mph - N/A Rain Rain
1:35 PM 56.5 °F 56.5 °F 100% 29.88 in 2.5 mi SE 9.2 mph 17.3 mph N/A Rain Light Rain
1:55 PM 56.8 °F 56.8 °F 100% 29.88 in 3.0 mi SE 6.9 mph - N/A Rain Heavy Rain
2:15 PM 57.2 °F 57.2 °F 100% 29.88 in 3.0 mi SE 4.6 mph - N/A Rain Rain
2:35 PM 57.7 °F 57.7 °F 100% 29.92 in 1.5 mi South 4.6 mph - N/A Rain Heavy Rain
2:55 PM 57.6 °F 57.6 °F 100% 29.90 in 2.5 mi SE 4.6 mph - N/A Rain Rain
3:15 PM 58.1 °F 58.1 °F 100% 29.89 in 5.0 mi SE 5.8 mph - N/A Rain Rain
3:35 PM 59.9 °F 59.9 °F 100% 29.88 in 7.0 mi SE 8.1 mph - N/A Rain Light Rain
3:55 PM 62.4 °F 62.4 °F 100% 29.88 in 10.0 mi South 10.4 mph 16.1 mph N/A   Overcast
4:15 PM 63.1 °F 63.1 °F 100% 29.87 in 10.0 mi SSE 13.8 mph 18.4 mph N/A   Overcast
4:35 PM 65.1 °F 65.1 °F 100% 29.87 in 10.0 mi South 13.8 mph - N/A   Overcast
4:55 PM 64.8 °F 64.2 °F 98% 29.86 in 10.0 mi South 9.2 mph - N/A   Overcast
5:15 PM 64.9 °F 64.2 °F 98% 29.85 in 10.0 mi South 10.4 mph - N/A   Overcast
5:35 PM 65.8 °F 65.1 °F 98% 29.83 in 10.0 mi SSE 9.2 mph - N/A   Overcast
5:55 PM 67.8 °F 66.0 °F 94% 29.83 in 10.0 mi South 12.7 mph - N/A   Scattered Clouds
6:15 PM 68.5 °F 66.2 °F 92% 29.83 in 10.0 mi South 11.5 mph - N/A   Scattered Clouds
6:35 PM 67.5 °F 65.3 °F 93% 29.83 in 10.0 mi South 13.8 mph - N/A   Mostly Cloudy
6:55 PM 67.1 °F 65.5 °F 95% 29.83 in 10.0 mi South 10.4 mph - N/A   Overcast
7:15 PM 67.1 °F 66.2 °F 97% 29.82 in 10.0 mi South 6.9 mph - N/A   Overcast
7:35 PM 67.3 °F 66.6 °F 98% 29.83 in 7.0 mi South 10.4 mph - N/A   Overcast
7:55 PM 67.6 °F 66.7 °F 97% 29.83 in 7.0 mi South 11.5 mph - N/A   Overcast
8:15 PM 67.1 °F 66.6 °F 98% 29.82 in 4.0 mi South 13.8 mph - N/A   Overcast
8:36 PM 66.4 °F 66.2 °F 99% 29.82 in 3.0 mi South 10.4 mph - N/A   Overcast
8:55 PM 66.0 °F 65.7 °F 99% 29.82 in 3.0 mi South 9.2 mph - N/A   Overcast
9:15 PM 65.7 °F 65.7 °F 100% 29.82 in 3.0 mi South 6.9 mph - N/A   Overcast
9:36 PM 65.3 °F 65.3 °F 100% 29.82 in 3.0 mi South 6.9 mph - N/A Rain Light Rain
9:55 PM 65.3 °F 65.3 °F 100% 29.81 in 3.0 mi SSE 5.8 mph - N/A Rain Light Rain
10:15 PM 65.3 °F 65.3 °F 100% 29.82 in 3.0 mi South 8.1 mph - N/A   Overcast
10:36 PM 66.0 °F 66.0 °F 100% 29.82 in 4.0 mi South 8.1 mph - N/A   Overcast
10:55 PM 65.8 °F 65.8 °F 100% 29.82 in 3.0 mi South 6.9 mph - N/A   Overcast
11:15 PM 65.8 °F 65.8 °F 100% 29.81 in 3.0 mi South 5.8 mph - N/A   Overcast
11:36 PM 65.8 °F 65.8 °F 100% 29.81 in 3.0 mi SSW 6.9 mph - N/A   Light Drizzle
11:55 PM 66.4 °F 66.4 °F 100% 29.81 in 3.0 mi SSW 8.1 mph - N/A   Overcast